,,,PA_Meas_PMT16A,,PR_Meas_QMR101_102,,RH_Meas_QMH101,,SR_Meas_QMS101,,TA_Meas_QMH101,,GenWind,,GenWind,
date,time,status,PA,status,PR,status,RH,status,SR,status,TA,status,DirAvg,status,SpdAvg,
2008-12-03, 00:00:05,VALID,1003.24,VALID,0,VALID,88.1975,VALID,0,VALID,25.785,VALID,21,VALID,0.237891,
2008-12-03, 00:01:05,VALID,1003.26,VALID,0,VALID,88.289,VALID,0,VALID,25.7285,VALID,66,VALID,0.403906,
2008-12-03, 00:02:05,VALID,1003.29,VALID,0,VALID,88.5637,VALID,0,VALID,25.67,VALID,66,VALID,0.480469,
2008-12-03, 00:03:05,VALID,1003.29,VALID,0,VALID,88.9833,VALID,0,VALID,25.6116,VALID,59,VALID,0.418359,
2008-12-03, 00:04:05,VALID,1003.29,VALID,0,VALID,89.0824,VALID,0,VALID,25.5921,VALID,59,VALID,0.269922,
2008-12-03, 00:05:05,VALID,1003.27,VALID,0,VALID,89.2655,VALID,0,VALID,25.5532,VALID,59,VALID,0.478906,
2008-12-03, 00:06:05,VALID,1003.28,VALID,0,VALID,89.4486,VALID,0.100563,VALID,25.5142,VALID,60,VALID,0.166016,
2008-12-03, 00:07:05,VALID,1003.24,VALID,0,VALID,89.5707,VALID,0,VALID,25.4948,VALID,60,VALID,0.138672,
2008-12-03, 00:08:05,VALID,1003.27,VALID,0,VALID,89.7919,VALID,0.100563,VALID,25.4753,VALID,60,VALID,0.301562,
2008-12-03, 00:09:05,VALID,1003.22,VALID,0,VALID,89.9292,VALID,0.100563,VALID,25.4149,VALID,60,VALID,0,
2008-12-03, 00:10:05,VALID,1003.22,VALID,0,VALID,89.9598,VALID,0,VALID,25.4169,VALID,60,VALID,0,
2008-12-03, 00:11:05,VALID,1003.23,VALID,0,VALID,90.1352,VALID,0.100563,VALID,25.3565,VALID,60,VALID,0,
2008-12-03, 00:12:05,VALID,1003.2,VALID,0,VALID,90.2725,VALID,0.100563,VALID,25.339,VALID,59,VALID,0,
2008-12-03, 00:13:05,VALID,1003.21,VALID,0,VALID,90.5014,VALID,0.100563,VALID,25.3195,VALID,59,VALID,0,
2008-12-03, 00:14:05,VALID,1003.18,VALID,0,VALID,90.6769,VALID,0,VALID,25.3,VALID,59,VALID,0,
2008-12-03, 00:15:05,VALID,1003.19,VALID,0,VALID,90.8447,VALID,0,VALID,25.2592,VALID,59,VALID,0,
2008-12-03, 00:16:05,VALID,1003.18,VALID,0,VALID,91.0125,VALID,0,VALID,25.2611,VALID,59,VALID,0,
2008-12-03, 00:17:05,VALID,1003.16,VALID,0,VALID,91.1193,VALID,0.100563,VALID,25.2611,VALID,59,VALID,0,
2008-12-03, 00:18:05,VALID,1003.14,VALID,0,VALID,91.1956,VALID,0.100563,VALID,25.2611,VALID,61,VALID,0.207813,
2008-12-03, 00:19:05,VALID,1003.16,VALID,0,VALID,91.2338,VALID,0.100563,VALID,25.2397,VALID,62,VALID,0.256641,
2008-12-03, 00:20:05,VALID,1003.14,VALID,0,VALID,91.2719,VALID,0,VALID,25.2397,VALID,62,VALID,0.223047,
2008-12-03, 00:21:05,VALID,1003.13,VALID,0,VALID,91.333,VALID,0.100563,VALID,25.2416,VALID,62,VALID,0.141406,
2008-12-03, 00:22:05,VALID,1003.13,VALID,0,VALID,91.4016,VALID,0.100563,VALID,25.2221,VALID,62,VALID,0.0910156,
2008-12-03, 00:23:05,VALID,1003.12,VALID,0,VALID,91.4703,VALID,0.100563,VALID,25.2221,VALID,62,VALID,0.158594,
2008-12-03, 00:24:05,VALID,1003.11,VALID,0,VALID,91.5237,VALID,0.100563,VALID,25.1813,VALID,62,VALID,0,
2008-12-03, 00:25:05,VALID,1003.08,VALID,0,VALID,91.6152,VALID,0,VALID,25.1832,VALID,62,VALID,0.00859375,
2008-12-03, 00:26:05,VALID,1003.09,VALID,0,VALID,91.6991,VALID,0.100563,VALID,25.2221,VALID,62,VALID,0.193359,
2008-12-03, 00:27:05,VALID,1003.07,VALID,0,VALID,91.7678,VALID,0.100563,VALID,25.2007,VALID,62,VALID,0.168359,
2008-12-03, 00:28:05,VALID,1003.05,VALID,0,VALID,91.7983,VALID,0.100563,VALID,25.2007,VALID,63,VALID,0.421484,
2008-12-03, 00:29:05,VALID,1003.02,VALID,0,VALID,91.8136,VALID,0,VALID,25.2007,VALID,63,VALID,0.405859,
2008-12-03, 00:30:05,VALID,1003.01,VALID,0,VALID,91.8212,VALID,0.100563,VALID,25.2202,VALID,63,VALID,0.28125,
2008-12-03, 00:31:05,VALID,1002.98,VALID,0,VALID,91.8822,VALID,0.100563,VALID,25.2007,VALID,63,VALID,0.161328,
2008-12-03, 00:32:05,VALID,1003.01,VALID,0,VALID,91.9051,VALID,0,VALID,25.2007,VALID,63,VALID,0.262109,
2008-12-03, 00:33:05,VALID,1002.99,VALID,0,VALID,91.9204,VALID,0,VALID,25.2027,VALID,63,VALID,0.26875,
2008-12-03, 00:34:05,VALID,1003.01,VALID,0,VALID,91.9585,VALID,0,VALID,25.2027,VALID,63,VALID,0.3875,
2008-12-03, 00:35:05,VALID,1003.01,VALID,0,VALID,92.0196,VALID,0,VALID,25.2027,VALID,64,VALID,0.267188,
2008-12-03, 00:36:05,VALID,1003.03,VALID,0,VALID,92.0424,VALID,0.100563,VALID,25.2027,VALID,63,VALID,0.350781,
2008-12-03, 00:37:05,VALID,1003.03,VALID,0,VALID,92.0958,VALID,0.100563,VALID,25.1832,VALID,63,VALID,0,
2008-12-03, 00:38:05,VALID,1003.03,VALID,0,VALID,92.1416,VALID,0.100563,VALID,25.1423,VALID,63,VALID,0.195703,
2008-12-03, 00:39:05,VALID,1003.01,VALID,0,VALID,92.2027,VALID,0,VALID,25.1423,VALID,70,VALID,0.640234,
2008-12-03, 00:40:05,VALID,1002.99,VALID,0,VALID,92.2713,VALID,0,VALID,25.1423,VALID,76,VALID,0.316016,
2008-12-03, 00:41:05,VALID,1002.95,VALID,0,VALID,92.3171,VALID,0,VALID,25.1618,VALID,76,VALID,0.740625,
2008-12-03, 00:42:05,VALID,1002.95,VALID,0,VALID,92.3247,VALID,0,VALID,25.2027,VALID,76,VALID,0.61875,
2008-12-03, 00:43:05,VALID,1002.93,VALID,0,VALID,92.3171,VALID,0,VALID,25.2027,VALID,73,VALID,0.371484,
2008-12-03, 00:44:05,VALID,1002.91,VALID,0,VALID,92.2561,VALID,0,VALID,25.2027,VALID,63,VALID,0.630078,
2008-12-03, 00:45:05,VALID,1002.9,VALID,0,VALID,92.2027,VALID,0,VALID,25.2007,VALID,72,VALID,0.520703,
2008-12-03, 00:46:05,VALID,1002.92,VALID,0,VALID,92.1416,VALID,0.100563,VALID,25.2416,VALID,73,VALID,0.489062,
2008-12-03, 00:47:05,VALID,1002.88,VALID,0,VALID,92.0806,VALID,0.100563,VALID,25.2007,VALID,56,VALID,0.377734,
2008-12-03, 00:48:05,VALID,1002.86,VALID,0,VALID,92.0577,VALID,0.100563,VALID,25.2221,VALID,62,VALID,0.410156,
2008-12-03, 00:49:05,VALID,1002.88,VALID,0,VALID,92.0806,VALID,0,VALID,25.2007,VALID,28,VALID,0.501953,
2008-12-03, 00:50:05,VALID,1002.88,VALID,0,VALID,92.1416,VALID,0.100563,VALID,25.2007,VALID,27,VALID,0.709766,
2008-12-03, 00:51:05,VALID,1002.84,VALID,0,VALID,92.1645,VALID,0.100563,VALID,25.2397,VALID,22,VALID,0.337109,
2008-12-03, 00:52:05,VALID,1002.84,VALID,0,VALID,92.1264,VALID,0.100563,VALID,25.2397,VALID,22,VALID,0.523047,
2008-12-03, 00:53:05,VALID,1002.79,VALID,0,VALID,92.1187,VALID,0.100563,VALID,25.2592,VALID,32,VALID,0.438281,
2008-12-03, 00:54:04,VALID,1002.82,VALID,0,VALID,92.073,VALID,0,VALID,25.3176,VALID,27,VALID,0.507422,
2008-12-03, 00:55:04,VALID,1002.8,VALID,0,VALID,91.8975,VALID,0.100563,VALID,25.3565,VALID,26,VALID,0.574219,
2008-12-03, 00:56:04,VALID,1002.83,VALID,0,VALID,91.8059,VALID,0.100563,VALID,25.376,VALID,22,VALID,0.431641,
2008-12-03, 00:57:04,VALID,1002.83,VALID,0,VALID,91.7068,VALID,0,VALID,25.3955,VALID,21,VALID,0.500781,
2008-12-03, 00:58:04,VALID,1002.81,VALID,0,VALID,91.6305,VALID,0.100563,VALID,25.4363,VALID,21,VALID,0.273438,
2008-12-03, 00:59:04,VALID,1002.78,VALID,0,VALID,91.4855,VALID,0.100563,VALID,25.3955,VALID,21,VALID,0.29375,
2008-12-03, 01:00:04,VALID,1002.8,VALID,0,VALID,91.4398,VALID,0,VALID,25.4363,VALID,26,VALID,0.418359,
2008-12-03, 01:01:04,VALID,1002.78,VALID,0,VALID,91.4703,VALID,0,VALID,25.4558,VALID,24,VALID,0.467578,
2008-12-03, 01:02:04,VALID,1002.75,VALID,0,VALID,91.3864,VALID,0,VALID,25.4558,VALID,24,VALID,0.209375,
2008-12-03, 01:03:04,VALID,1002.78,VALID,0,VALID,91.3558,VALID,0,VALID,25.4558,VALID,36,VALID,0.467578,
2008-12-03, 01:04:04,VALID,1002.77,VALID,0,VALID,91.333,VALID,0,VALID,25.4558,VALID,20,VALID,0.679297,
2008-12-03, 01:05:04,VALID,1002.77,VALID,0,VALID,91.3024,VALID,0.100563,VALID,25.4948,VALID,25,VALID,0.728516,
2008-12-03, 01:06:04,VALID,1002.76,VALID,0,VALID,91.2262,VALID,0.100563,VALID,25.4734,VALID,36,VALID,0.757422,
2008-12-03, 01:07:04,VALID,1002.76,VALID,0,VALID,91.0965,VALID,0.100563,VALID,25.4734,VALID,25,VALID,0.789063,
2008-12-03, 01:08:04,VALID,1002.75,VALID,0,VALID,91.1041,VALID,0,VALID,25.5337,VALID,34,VALID,0.739453,
2008-12-03, 01:09:04,VALID,1002.73,VALID,0,VALID,90.9439,VALID,0.100563,VALID,25.5513,VALID,37,VALID,0.904297,
2008-12-03, 01:10:04,VALID,1002.74,VALID,0,VALID,90.7532,VALID,0,VALID,25.6136,VALID,24,VALID,0.547656,
2008-12-03, 01:11:04,VALID,1002.74,VALID,0,VALID,90.6235,VALID,0,VALID,25.6525,VALID,26,VALID,0.717969,
2008-12-03, 01:12:04,VALID,1002.71,VALID,0,VALID,90.4099,VALID,0,VALID,25.6311,VALID,33,VALID,0.0511719,
2008-12-03, 01:13:04,VALID,1002.7,VALID,0,VALID,90.3031,VALID,0,VALID,25.6506,VALID,33,VALID,0.599219,
2008-12-03, 01:14:04,VALID,1002.68,VALID,0,VALID,90.2039,VALID,0,VALID,25.6506,VALID,31,VALID,0.495703,
2008-12-03, 01:15:04,VALID,1002.64,VALID,0,VALID,90.1581,VALID,0,VALID,25.672,VALID,31,VALID,0.313281,
2008-12-03, 01:16:04,VALID,1002.63,VALID,0,VALID,90.1581,VALID,0,VALID,25.6525,VALID,29,VALID,0.587109,
2008-12-03, 01:17:04,VALID,1002.6,VALID,0,VALID,90.1276,VALID,0,VALID,25.633,VALID,24,VALID,0.75625,
2008-12-03, 01:18:04,VALID,1002.56,VALID,0,VALID,90.1963,VALID,0,VALID,25.6311,VALID,60,VALID,0.660156,
2008-12-03, 01:19:04,VALID,1002.56,VALID,0,VALID,90.036,VALID,0,VALID,25.6311,VALID,41,VALID,0.500781,
2008-12-03, 01:20:04,VALID,1002.51,VALID,0,VALID,89.9674,VALID,0,VALID,25.6311,VALID,49,VALID,0.373828,
2008-12-03, 01:21:04,VALID,1002.48,VALID,0,VALID,89.853,VALID,0,VALID,25.6116,VALID,65,VALID,0.539063,
2008-12-03, 01:22:04,VALID,1002.45,VALID,0,VALID,89.9903,VALID,0,VALID,25.5727,VALID,65,VALID,0.445313,
2008-12-03, 01:23:04,VALID,1002.46,VALID,0,VALID,90.0894,VALID,0,VALID,25.5532,VALID,42,VALID,0.502344,
2008-12-03, 01:24:04,VALID,1002.45,VALID,0,VALID,90.1123,VALID,0,VALID,25.5337,VALID,41,VALID,0.213281,
2008-12-03, 01:25:04,VALID,1002.45,VALID,0,VALID,90.1581,VALID,0,VALID,25.5142,VALID,41,VALID,0.18125,
2008-12-03, 01:26:04,VALID,1002.44,VALID,0,VALID,90.2039,VALID,0,VALID,25.4948,VALID,41,VALID,0.084375,
2008-12-03, 01:27:04,VALID,1002.47,VALID,0,VALID,90.2497,VALID,0,VALID,25.5337,VALID,15,VALID,0.378516,
2008-12-03, 01:28:04,VALID,1002.45,VALID,0,VALID,90.1581,VALID,0,VALID,25.5337,VALID,15,VALID,0.293359,
2008-12-03, 01:29:04,VALID,1002.44,VALID,0,VALID,90.1123,VALID,0,VALID,25.5551,VALID,15,VALID,0.266406,
2008-12-03, 01:30:04,VALID,1002.44,VALID,0,VALID,90.0818,VALID,0,VALID,25.5337,VALID,15,VALID,0.317969,
2008-12-03, 01:31:04,VALID,1002.41,VALID,0,VALID,90.1505,VALID,0,VALID,25.4948,VALID,15,VALID,0.387109,
2008-12-03, 01:32:04,VALID,1002.39,VALID,0,VALID,90.2039,VALID,0,VALID,25.4753,VALID,15,VALID,0.326562,
2008-12-03, 01:33:04,VALID,1002.41,VALID,0,VALID,90.242,VALID,0,VALID,25.4169,VALID,15,VALID,0.409766,
2008-12-03, 01:34:04,VALID,1002.4,VALID,0,VALID,90.3183,VALID,0,VALID,25.3974,VALID,15,VALID,0.333203,
2008-12-03, 01:35:04,VALID,1002.42,VALID,0,VALID,90.4862,VALID,0,VALID,25.3195,VALID,15,VALID,0.445703,
2008-12-03, 01:36:04,VALID,1002.37,VALID,0,VALID,90.6006,VALID,0,VALID,25.2611,VALID,15,VALID,0.299609,
2008-12-03, 01:37:04,VALID,1002.36,VALID,0,VALID,90.8981,VALID,0,VALID,25.2221,VALID,15,VALID,0.630469,
2008-12-03, 01:38:04,VALID,1002.36,VALID,0,VALID,91.0659,VALID,0,VALID,25.2027,VALID,15,VALID,0.598828,
2008-12-03, 01:39:04,VALID,1002.36,VALID,0,VALID,91.2262,VALID,0,VALID,25.2027,VALID,15,VALID,0.433594,
2008-12-03, 01:40:04,VALID,1002.33,VALID,0,VALID,91.4321,VALID,0,VALID,25.1637,VALID,20,VALID,0.782422,
2008-12-03, 01:41:04,VALID,1002.34,VALID,0,VALID,91.4703,VALID,0,VALID,25.2027,VALID,15,VALID,0.566406,
2008-12-03, 01:42:04,VALID,1002.35,VALID,0,VALID,91.455,VALID,0,VALID,25.263,VALID,21,VALID,0.929688,
2008-12-03, 01:43:04,VALID,1002.32,VALID,0,VALID,91.1728,VALID,0,VALID,25.339,VALID,357,VALID,0.41875,
2008-12-03, 01:44:04,VALID,1002.31,VALID,0,VALID,90.9057,VALID,0,VALID,25.4169,VALID,22,VALID,0.511328,
2008-12-03, 01:45:04,VALID,1002.31,VALID,0,VALID,90.6692,VALID,0,VALID,25.4772,VALID,20,VALID,0.585547,
2008-12-03, 01:46:04,VALID,1002.29,VALID,0,VALID,90.4327,VALID,0,VALID,25.5162,VALID,14,VALID,0.651563,
2008-12-03, 01:47:04,VALID,1002.26,VALID,0,VALID,89.9903,VALID,0,VALID,25.6136,VALID,24,VALID,0.720703,
2008-12-03, 01:48:04,VALID,1002.24,VALID,0,VALID,89.6546,VALID,0,VALID,25.6311,VALID,14,VALID,0.723828,
2008-12-03, 01:49:04,VALID,1002.22,VALID,0,VALID,89.4334,VALID,0,VALID,25.6895,VALID,15,VALID,0.266016,
2008-12-03, 01:50:04,VALID,1002.21,VALID,0,VALID,89.1511,VALID,0,VALID,25.709,VALID,14,VALID,0.269922,
2008-12-03, 01:51:04,VALID,1002.22,VALID,0,VALID,88.9527,VALID,0,VALID,25.748,VALID,27,VALID,0.441016,
2008-12-03, 01:52:04,VALID,1002.23,VALID,0,VALID,88.8765,VALID,0,VALID,25.709,VALID,36,VALID,0.405859,
2008-12-03, 01:53:04,VALID,1002.24,VALID,0,VALID,88.7315,VALID,0,VALID,25.7285,VALID,72,VALID,0.591016,
2008-12-03, 01:54:04,VALID,1002.23,VALID,0,VALID,88.4416,VALID,0,VALID,25.6895,VALID,73,VALID,0.471875,
2008-12-03, 01:55:04,VALID,1002.22,VALID,0,VALID,88.6705,VALID,0,VALID,25.6116,VALID,73,VALID,0.449609,
2008-12-03, 01:56:04,VALID,1002.22,VALID,0,VALID,88.9985,VALID,0.100563,VALID,25.5142,VALID,73,VALID,0.407813,
2008-12-03, 01:57:04,VALID,1002.2,VALID,0,VALID,89.3266,VALID,0,VALID,25.4149,VALID,60,VALID,0.539063,
2008-12-03, 01:58:04,VALID,1002.22,VALID,0,VALID,89.6393,VALID,0,VALID,25.3584,VALID,61,VALID,0.485547,
2008-12-03, 01:59:04,VALID,1002.2,VALID,0,VALID,89.9521,VALID,0,VALID,25.3019,VALID,42,VALID,0.438281,
2008-12-03, 02:00:04,VALID,1002.2,VALID,0,VALID,90.2573,VALID,0,VALID,25.2221,VALID,42,VALID,0.464844,
2008-12-03, 02:01:04,VALID,1002.19,VALID,0,VALID,90.5777,VALID,0,VALID,25.224,VALID,35,VALID,0.680469,
2008-12-03, 02:02:04,VALID,1002.21,VALID,0,VALID,90.7455,VALID,0,VALID,25.224,VALID,34,VALID,0.525,
2008-12-03, 02:03:04,VALID,1002.21,VALID,0,VALID,90.7608,VALID,0,VALID,25.2221,VALID,27,VALID,0.452734,
2008-12-03, 02:04:04,VALID,1002.21,VALID,0,VALID,90.7989,VALID,0,VALID,25.2416,VALID,30,VALID,0.938281,
2008-12-03, 02:05:04,VALID,1002.21,VALID,0,VALID,90.8066,VALID,0,VALID,25.2825,VALID,23,VALID,0.885938,
2008-12-03, 02:06:04,VALID,1002.19,VALID,0,VALID,90.6921,VALID,0,VALID,25.3019,VALID,19,VALID,0.352734,
2008-12-03, 02:07:04,VALID,1002.19,VALID,0,VALID,90.5701,VALID,0,VALID,25.3604,VALID,8,VALID,0.767969,
2008-12-03, 02:08:04,VALID,1002.2,VALID,0,VALID,90.5243,VALID,0,VALID,25.3779,VALID,357,VALID,0.432031,
2008-12-03, 02:09:04,VALID,1002.2,VALID,0,VALID,90.2878,VALID,0,VALID,25.3974,VALID,358,VALID,0.342187,
2008-12-03, 02:10:04,VALID,1002.19,VALID,0,VALID,90.1886,VALID,0,VALID,25.4169,VALID,5,VALID,0.551172,
2008-12-03, 02:11:04,VALID,1002.17,VALID,0,VALID,90.0818,VALID,0,VALID,25.4383,VALID,29,VALID,0.283984,
2008-12-03, 02:12:04,VALID,1002.16,VALID,0,VALID,89.975,VALID,0,VALID,25.4753,VALID,22,VALID,0.30625,
2008-12-03, 02:13:04,VALID,1002.19,VALID,0,VALID,89.7538,VALID,0,VALID,25.4539,VALID,22,VALID,0.171094,
2008-12-03, 02:14:04,VALID,1002.18,VALID,0,VALID,89.6851,VALID,0,VALID,25.4948,VALID,22,VALID,0.0394531,
2008-12-03, 02:15:04,VALID,1002.18,VALID,0,VALID,89.6165,VALID,0,VALID,25.4948,VALID,23,VALID,0.173047,
2008-12-03, 02:16:04,VALID,1002.18,VALID,0,VALID,89.5707,VALID,0,VALID,25.5142,VALID,31,VALID,0.332812,
2008-12-03, 02:17:04,VALID,1002.19,VALID,0,VALID,89.5478,VALID,0,VALID,25.5746,VALID,57,VALID,0.308984,
2008-12-03, 02:18:04,VALID,1002.18,VALID,0,VALID,89.4486,VALID,0,VALID,25.5921,VALID,81,VALID,0.205859,
2008-12-03, 02:19:04,VALID,1002.18,VALID,0,VALID,89.2426,VALID,0,VALID,25.5921,VALID,81,VALID,0.159766,
2008-12-03, 02:20:04,VALID,1002.15,VALID,0,VALID,89.1511,VALID,0,VALID,25.6311,VALID,81,VALID,0.414063,
2008-12-03, 02:21:04,VALID,1002.14,VALID,0,VALID,89.029,VALID,0,VALID,25.6525,VALID,67,VALID,0.151172,
2008-12-03, 02:22:04,VALID,1002.11,VALID,0,VALID,88.9451,VALID,0,VALID,25.6506,VALID,67,VALID,0.171484,
2008-12-03, 02:23:04,VALID,1002.13,VALID,0,VALID,88.8993,VALID,0,VALID,25.6525,VALID,67,VALID,0.301562,
2008-12-03, 02:24:04,VALID,1002.1,VALID,0,VALID,88.8917,VALID,0,VALID,25.6506,VALID,48,VALID,0.494141,
2008-12-03, 02:25:04,VALID,1002.08,VALID,0,VALID,88.8536,VALID,0.100563,VALID,25.672,VALID,47,VALID,0.507031,
2008-12-03, 02:26:04,VALID,1002.07,VALID,0,VALID,88.7697,VALID,0,VALID,25.67,VALID,22,VALID,0.590625,
2008-12-03, 02:27:04,VALID,1002.06,VALID,0,VALID,88.64,VALID,0,VALID,25.6895,VALID,22,VALID,0.543359,
2008-12-03, 02:28:04,VALID,1002.05,VALID,0,VALID,88.6323,VALID,0,VALID,25.67,VALID,22,VALID,0.347656,
2008-12-03, 02:29:04,VALID,1002.07,VALID,0,VALID,88.6018,VALID,0,VALID,25.67,VALID,22,VALID,0,
2008-12-03, 02:30:04,VALID,1002.03,VALID,0,VALID,88.5637,VALID,0,VALID,25.67,VALID,22,VALID,0.138672,
2008-12-03, 02:31:04,VALID,1002.06,VALID,0,VALID,88.5255,VALID,0,VALID,25.67,VALID,26,VALID,0.266406,
2008-12-03, 02:32:04,VALID,1002.01,VALID,0,VALID,88.4798,VALID,0,VALID,25.709,VALID,26,VALID,0.1,
2008-12-03, 02:33:04,VALID,1002.01,VALID,0,VALID,88.4416,VALID,0,VALID,25.709,VALID,32,VALID,0.333984,
2008-12-03, 02:34:04,VALID,1002.01,VALID,0,VALID,88.4187,VALID,0,VALID,25.6895,VALID,38,VALID,0.355469,
2008-12-03, 02:35:04,VALID,1002.03,VALID,0,VALID,88.3348,VALID,0,VALID,25.7285,VALID,38,VALID,0.0160156,
2008-12-03, 02:36:04,VALID,1002.03,VALID,0,VALID,88.2433,VALID,0,VALID,25.7285,VALID,38,VALID,0.040625,
2008-12-03, 02:37:04,VALID,1002.08,VALID,0,VALID,88.3424,VALID,0,VALID,25.7285,VALID,35,VALID,0.378516,
2008-12-03, 02:38:04,VALID,1002.09,VALID,0,VALID,88.289,VALID,0,VALID,25.7285,VALID,18,VALID,0.214453,
2008-12-03, 02:39:04,VALID,1002.11,VALID,0,VALID,88.2967,VALID,0,VALID,25.709,VALID,18,VALID,0.189844,
2008-12-03, 02:40:04,VALID,1002.13,VALID,0,VALID,88.2051,VALID,0,VALID,25.709,VALID,19,VALID,0.60625,
2008-12-03, 02:41:04,VALID,1002.13,VALID,0,VALID,88.2433,VALID,0,VALID,25.6876,VALID,19,VALID,0.0921875,
2008-12-03, 02:42:04,VALID,1002.15,VALID,0,VALID,88.0907,VALID,0,VALID,25.709,VALID,40,VALID,0.526953,
2008-12-03, 02:43:04,VALID,1002.14,VALID,0,VALID,87.961,VALID,0,VALID,25.748,VALID,12,VALID,0.355469,
2008-12-03, 02:44:04,VALID,1002.17,VALID,0,VALID,87.8847,VALID,0,VALID,25.7869,VALID,12,VALID,0,
2008-12-03, 02:45:04,VALID,1002.17,VALID,0,VALID,87.7398,VALID,0,VALID,25.8278,VALID,39,VALID,0.499609,
2008-12-03, 02:46:04,VALID,1002.16,VALID,0,VALID,87.6177,VALID,0,VALID,25.8064,VALID,53,VALID,0.221875,
2008-12-03, 02:47:04,VALID,1002.16,VALID,0,VALID,87.5261,VALID,0,VALID,25.8259,VALID,53,VALID,0.104687,
2008-12-03, 02:48:04,VALID,1002.17,VALID,0,VALID,87.6024,VALID,0,VALID,25.8259,VALID,53,VALID,0.126563,
2008-12-03, 02:49:04,VALID,1002.18,VALID,0,VALID,87.5414,VALID,0,VALID,25.8064,VALID,54,VALID,0.529297,
2008-12-03, 02:50:04,VALID,1002.16,VALID,0,VALID,87.6863,VALID,0,VALID,25.7869,VALID,59,VALID,0.194922,
2008-12-03, 02:51:04,VALID,1002.19,VALID,0,VALID,87.694,VALID,0,VALID,25.8083,VALID,59,VALID,0.284766,
2008-12-03, 02:52:04,VALID,1002.21,VALID,0,VALID,87.8084,VALID,0,VALID,25.7674,VALID,59,VALID,0.275391,
2008-12-03, 02:53:04,VALID,1002.2,VALID,0,VALID,87.9762,VALID,0,VALID,25.746,VALID,58,VALID,0.282031,
2008-12-03, 02:54:04,VALID,1002.21,VALID,0,VALID,87.9534,VALID,0,VALID,25.7285,VALID,58,VALID,0,
2008-12-03, 02:55:04,VALID,1002.19,VALID,0,VALID,88.1365,VALID,0,VALID,25.709,VALID,58,VALID,0,
2008-12-03, 02:56:04,VALID,1002.21,VALID,0,VALID,88.2814,VALID,0,VALID,25.709,VALID,58,VALID,0,
2008-12-03, 02:57:04,VALID,1002.17,VALID,0,VALID,88.4187,VALID,0,VALID,25.672,VALID,24,VALID,0.507031,
2008-12-03, 02:58:04,VALID,1002.19,VALID,0,VALID,88.5332,VALID,0,VALID,25.6506,VALID,24,VALID,0.254687,
2008-12-03, 02:59:04,VALID,1002.16,VALID,0,VALID,88.8536,VALID,0,VALID,25.6311,VALID,24,VALID,0.263672,
2008-12-03, 03:00:04,VALID,1002.14,VALID,0,VALID,88.9375,VALID,0,VALID,25.5941,VALID,24,VALID,0.21875,
2008-12-03, 03:01:04,VALID,1002.1,VALID,0,VALID,89.2274,VALID,0,VALID,25.5142,VALID,24,VALID,0.53125,
2008-12-03, 03:02:04,VALID,1002.1,VALID,0,VALID,89.4105,VALID,0,VALID,25.4558,VALID,24,VALID,0.417969,
2008-12-03, 03:03:04,VALID,1002.06,VALID,0,VALID,89.8148,VALID,0,VALID,25.4169,VALID,24,VALID,0.472656,
2008-12-03, 03:04:04,VALID,1002.05,VALID,0,VALID,90.1047,VALID,0,VALID,25.3779,VALID,24,VALID,0.267578,
2008-12-03, 03:05:04,VALID,1002.05,VALID,0,VALID,90.2191,VALID,0,VALID,25.339,VALID,35,VALID,0.288672,
2008-12-03, 03:06:04,VALID,1002.04,VALID,0,VALID,90.3717,VALID,0.100563,VALID,25.339,VALID,35,VALID,0.0117188,
2008-12-03, 03:07:04,VALID,1002.04,VALID,0,VALID,90.4556,VALID,0,VALID,25.3,VALID,35,VALID,0.291797,
2008-12-03, 03:08:04,VALID,1002.01,VALID,0,VALID,90.6158,VALID,0,VALID,25.2806,VALID,35,VALID,0.193359,
2008-12-03, 03:09:04,VALID,1001.99,VALID,0,VALID,90.7226,VALID,0,VALID,25.2611,VALID,35,VALID,0.340625,
2008-12-03, 03:10:04,VALID,1002,VALID,0,VALID,90.86,VALID,0,VALID,25.2416,VALID,35,VALID,0.287891,
2008-12-03, 03:11:04,VALID,1001.99,VALID,0,VALID,90.9439,VALID,0,VALID,25.2027,VALID,35,VALID,0.317578,
2008-12-03, 03:12:04,VALID,1001.95,VALID,0,VALID,91.0354,VALID,0,VALID,25.1637,VALID,35,VALID,0,
2008-12-03, 03:13:04,VALID,1001.93,VALID,0,VALID,91.1346,VALID,0,VALID,25.1637,VALID,35,VALID,0.152344,
2008-12-03, 03:14:04,VALID,1001.91,VALID,0,VALID,91.2109,VALID,0,VALID,25.1442,VALID,35,VALID,0.185547,
2008-12-03, 03:15:04,VALID,1001.9,VALID,0,VALID,91.2796,VALID,0,VALID,25.1442,VALID,35,VALID,0.286719,
2008-12-03, 03:16:04,VALID,1001.92,VALID,0,VALID,91.3253,VALID,0,VALID,25.1442,VALID,35,VALID,0.380078,
2008-12-03, 03:17:04,VALID,1001.9,VALID,0,VALID,91.3101,VALID,0,VALID,25.1637,VALID,35,VALID,0.239844,
2008-12-03, 03:18:04,VALID,1001.92,VALID,0,VALID,91.3558,VALID,0,VALID,25.1637,VALID,35,VALID,0.334375,
2008-12-03, 03:19:04,VALID,1001.91,VALID,0,VALID,91.2872,VALID,0,VALID,25.1832,VALID,35,VALID,0.208984,
2008-12-03, 03:20:04,VALID,1001.9,VALID,0,VALID,91.2109,VALID,0,VALID,25.2221,VALID,35,VALID,0.255859,
2008-12-03, 03:21:04,VALID,1001.91,VALID,0,VALID,91.0965,VALID,0,VALID,25.2611,VALID,33,VALID,0.584375,
2008-12-03, 03:22:04,VALID,1001.89,VALID,0,VALID,90.9973,VALID,0,VALID,25.3195,VALID,32,VALID,0.235938,
2008-12-03, 03:23:04,VALID,1001.89,VALID,0,VALID,90.7379,VALID,0,VALID,25.339,VALID,32,VALID,0.116406,
2008-12-03, 03:24:04,VALID,1001.88,VALID,0,VALID,90.6464,VALID,0,VALID,25.3584,VALID,32,VALID,0,
2008-12-03, 03:25:04,VALID,1001.89,VALID,0,VALID,90.5396,VALID,0,VALID,25.3584,VALID,32,VALID,0,
2008-12-03, 03:26:04,VALID,1001.85,VALID,0,VALID,90.4862,VALID,0,VALID,25.3779,VALID,32,VALID,0.00234375,
2008-12-03, 03:27:04,VALID,1001.83,VALID,0,VALID,90.387,VALID,0,VALID,25.3974,VALID,32,VALID,0.232812,
2008-12-03, 03:28:04,VALID,1001.85,VALID,0,VALID,90.2573,VALID,0,VALID,25.4383,VALID,32,VALID,0.205469,
2008-12-03, 03:29:04,VALID,1001.83,VALID,0,VALID,89.975,VALID,0,VALID,25.4772,VALID,30,VALID,0.0539063,
2008-12-03, 03:30:04,VALID,1001.86,VALID,0,VALID,89.769,VALID,0,VALID,25.5162,VALID,30,VALID,0.0347656,
2008-12-03, 03:31:04,VALID,1001.89,VALID,0,VALID,89.5554,VALID,0,VALID,25.5337,VALID,30,VALID,0,
2008-12-03, 03:32:04,VALID,1001.87,VALID,0,VALID,89.441,VALID,0,VALID,25.5746,VALID,30,VALID,0,
2008-12-03, 03:33:04,VALID,1001.88,VALID,0,VALID,89.2808,VALID,0,VALID,25.5727,VALID,30,VALID,0,
2008-12-03, 03:34:04,VALID,1001.85,VALID,0,VALID,89.0214,VALID,0,VALID,25.633,VALID,30,VALID,0.230469,
2008-12-03, 03:35:04,VALID,1001.87,VALID,0,VALID,88.7773,VALID,0,VALID,25.6525,VALID,29,VALID,0.191797,
2008-12-03, 03:36:04,VALID,1001.85,VALID,0,VALID,88.5713,VALID,0,VALID,25.6895,VALID,25,VALID,0.395703,
2008-12-03, 03:37:04,VALID,1001.85,VALID,0,VALID,88.5026,VALID,0,VALID,25.7304,VALID,25,VALID,0.227344,
2008-12-03, 03:38:04,VALID,1001.84,VALID,0,VALID,88.5103,VALID,0,VALID,25.7285,VALID,25,VALID,0.279297,
2008-12-03, 03:39:04,VALID,1001.82,VALID,0,VALID,88.3806,VALID,0,VALID,25.7285,VALID,24,VALID,0.444922,
2008-12-03, 03:40:04,VALID,1001.81,VALID,0,VALID,88.4264,VALID,0,VALID,25.7499,VALID,24,VALID,0.251563,
2008-12-03, 03:41:04,VALID,1001.81,VALID,0,VALID,88.5637,VALID,0,VALID,25.709,VALID,24,VALID,0.371875,
2008-12-03, 03:42:04,VALID,1001.83,VALID,0,VALID,88.64,VALID,0,VALID,25.6895,VALID,24,VALID,0.0460938,
2008-12-03, 03:43:04,VALID,1001.85,VALID,0,VALID,88.6781,VALID,0,VALID,25.6895,VALID,21,VALID,0.245312,
2008-12-03, 03:44:04,VALID,1001.84,VALID,0,VALID,88.7544,VALID,0,VALID,25.7109,VALID,21,VALID,0.213672,
2008-12-03, 03:45:04,VALID,1001.86,VALID,0,VALID,88.8231,VALID,0,VALID,25.6506,VALID,23,VALID,0.226953,